Location: ???????????
(54.5822°N, 39.1075°E)
Time: 03:15:37
(UTC+00:00)

Cosmos 2322 Rocket - Pass Details

Date: 19 May 2025
Orbit: 832 x 850 km, 71.0° (Epoch: 15 June)

Event Time Altitude Azimuth Distance (km) Brightness Sun altitude
Rises 21:07:03 0° 325° (NW) 3,419 6.4 -15.4°
Reaches altitude 10° 21:09:32 10° 323° (NW) 2,478 5.5 -15.4°
Maximum altitude 21:15:08 61° 244° (WSW) 955 2.3 -15.4°
Enters shadow 21:18:32 24° 172° (S) 1,687 3.2 -15.4°
